• In Belarus
  • List of Countries
  • For 7 days
  • Water Temperature
  • Satellite Maps
  • Weather Map
  • Weather Widgets
  • user-avatar
    Login

    Hourly Weather Ali Bayramli

    Today, 21 September, Thursday

    Time Temperature Precipitation Wind Pressure Humidity
    00:00 +26°C° 0 mm 1 mps 758 mmHg 61%
    01:00 +26°C° 0 mm 1 mps 758 mmHg 61%
    02:00 +25°C° 0 mm 1 mps 758 mmHg 61%
    03:00 +25°C° 0 mm 1 mps 758 mmHg 64%
    04:00 +25°C° 0 mm 1 mps 758 mmHg 65%
    05:00 +25°C° 0 mm 1 mps 758 mmHg 65%
    06:00 +25°C° 0 mm 1 mps 758 mmHg 65%
    07:00 +27°C° 0 mm 1 mps 758 mmHg 58%
    08:00 +29°C° 0 mm 1 mps 758 mmHg 51%
    09:00 +31°C° 0 mm 1 mps 758 mmHg 39%
    10:00 +32°C° 0 mm 2 mps 758 mmHg 35%
    11:00 +34°C° 0 mm 2 mps 758 mmHg 30%
    12:00 +36°C° 0 mm 3 mps 758 mmHg 26%
    13:00 +36°C° 0 mm 4 mps 758 mmHg 25%
    14:00 +36°C° 0 mm 4 mps 757 mmHg 24%
    15:00 +36°C° 0 mm 5 mps 757 mmHg 24%
    16:00 +34°C° 0 mm 5 mps 757 mmHg 28%
    17:00 +33°C° 0 mm 5 mps 757 mmHg 33%
    18:00 +30°C° 0 mm 5 mps 757 mmHg 37%
    19:00 +29°C° 0 mm 4 mps 757 mmHg 43%
    20:00 +28°C° 0 mm 3 mps 757 mmHg 49%
    21:00 +27°C° 0 mm 3 mps 757 mmHg 55%
    22:00 +27°C° 0 mm 3 mps 757 mmHg 56%
    23:00 +27°C° 0 mm 2 mps 757 mmHg 58%

    Tomorrow, 22 September, Friday

    Time Temperature Precipitation Wind Pressure Humidity
    00:00 +26°C° 0 mm 2 mps 757 mmHg 60%
    01:00 +26°C° 0 mm 2 mps 757 mmHg 60%
    02:00 +26°C° 0 mm 2 mps 757 mmHg 61%
    03:00 +25°C° 0 mm 2 mps 757 mmHg 62%
    04:00 +25°C° 0 mm 1 mps 757 mmHg 63%
    05:00 +25°C° 0 mm 1 mps 757 mmHg 64%
    06:00 +25°C° 0 mm 1 mps 757 mmHg 65%
    07:00 +26°C° 0 mm 1 mps 757 mmHg 58%
    08:00 +28°C° 0 mm 2 mps 757 mmHg 52%
    09:00 +30°C° 0 mm 2 mps 757 mmHg 46%
    10:00 +31°C° 0 mm 2 mps 757 mmHg 40%
    11:00 +34°C° 0 mm 3 mps 756 mmHg 35%
    12:00 +35°C° 0 mm 4 mps 756 mmHg 30%
    13:00 +35°C° 0 mm 4 mps 756 mmHg 29%
    14:00 +35°C° 0 mm 5 mps 756 mmHg 27%
    15:00 +36°C° 0 mm 6 mps 755 mmHg 26%
    16:00 +34°C° 0 mm 5 mps 755 mmHg 31%
    17:00 +32°C° 0 mm 5 mps 755 mmHg 35%
    18:00 +30°C° 0 mm 5 mps 756 mmHg 40%
    19:00 +29°C° 0 mm 4 mps 756 mmHg 46%
    20:00 +28°C° 0 mm 4 mps 756 mmHg 52%
    21:00 +27°C° 0 mm 3 mps 757 mmHg 58%
    22:00 +27°C° 0 mm 3 mps 757 mmHg 60%
    23:00 +27°C° 0 mm 2 mps 757 mmHg 62%

    Day after tomorrow, 23 September, Saturday

    Time Temperature Precipitation Wind Pressure Humidity
    00:00 +26°C° 0 mm 2 mps 757 mmHg 64%
    01:00 +26°C° 0 mm 2 mps 757 mmHg 63%
    02:00 +26°C° 0 mm 2 mps 757 mmHg 62%
    03:00 +25°C° 0 mm 2 mps 757 mmHg 62%
    04:00 +25°C° 0 mm 2 mps 758 mmHg 61%
    05:00 +25°C° 0 mm 1 mps 758 mmHg 60%
    06:00 +25°C° 0 mm 1 mps 758 mmHg 59%
    07:00 +27°C° 0 mm 1 mps 759 mmHg 50%
    08:00 +28°C° 0 mm 1 mps 759 mmHg 42%
    09:00 +30°C° 0 mm 1 mps 759 mmHg 33%
    10:00 +32°C° 0 mm 2 mps 759 mmHg 28%
    11:00 +34°C° 0 mm 3 mps 759 mmHg 23%
    12:00 +35°C° 0 mm 4 mps 759 mmHg 19%
    13:00 +35°C° 0 mm 5 mps 759 mmHg 19%
    14:00 +35°C° 0 mm 6 mps 759 mmHg 19%
    15:00 +35°C° 0 mm 7 mps 758 mmHg 19%
    16:00 +33°C° 0 mm 7 mps 759 mmHg 23%
    17:00 +32°C° 0 mm 7 mps 759 mmHg 27%
    18:00 +30°C° 0 mm 7 mps 759 mmHg 31%
    19:00 +29°C° 0 mm 7 mps 760 mmHg 34%
    20:00 +28°C° 0 mm 7 mps 760 mmHg 38%
    21:00 +27°C° 0 mm 7 mps 760 mmHg 41%
    22:00 +27°C° 0 mm 7 mps 761 mmHg 44%
    23:00 +26°C° 0 mm 7 mps 761 mmHg 48%

    24 September, Sunday

    Time Temperature Precipitation Wind Pressure Humidity
    00:00 +26°C° 0 mm 6 mps 761 mmHg 51%
    01:00 +24°C° 0 mm 6 mps 761 mmHg 55%
    02:00 +23°C° 0 mm 5 mps 761 mmHg 58%
    03:00 +23°C° 0 mm 5 mps 761 mmHg 61%
    04:00 +22°C° 0 mm 5 mps 761 mmHg 63%
    05:00 +22°C° 0 mm 4 mps 762 mmHg 65%
    06:00 +22°C° 0 mm 4 mps 762 mmHg 67%
    07:00 +23°C° 0 mm 4 mps 762 mmHg 60%
    08:00 +26°C° 0 mm 4 mps 763 mmHg 53%
    09:00 +28°C° 0 mm 4 mps 763 mmHg 45%
    10:00 +29°C° 0 mm 4 mps 763 mmHg 41%
    11:00 +30°C° 0 mm 4 mps 763 mmHg 37%
    12:00 +32°C° 0 mm 4 mps 763 mmHg 33%
    13:00 +32°C° 0 mm 5 mps 762 mmHg 35%
    14:00 +32°C° 0 mm 6 mps 762 mmHg 36%
    15:00 +32°C° 0 mm 7 mps 762 mmHg 38%
    16:00 +29°C° 0 mm 7 mps 762 mmHg 43%
    17:00 +28°C° 0 mm 7 mps 762 mmHg 47%
    18:00 +27°C° 0 mm 7 mps 763 mmHg 52%
    19:00 +26°C° 0 mm 6 mps 763 mmHg 54%
    20:00 +26°C° 0 mm 5 mps 763 mmHg 55%
    21:00 +25°C° 0 mm 5 mps 763 mmHg 56%
    22:00 +25°C° 0 mm 4 mps 763 mmHg 58%
    23:00 +23°C° 0 mm 4 mps 763 mmHg 60%

    25 September, Monday

    Time Temperature Precipitation Wind Pressure Humidity
    00:00 +24°C° 0 mm 3 mps 763 mmHg 61%
    01:00 +24°C° 0 mm 3 mps 763 mmHg 63%
    02:00 +22°C° 0 mm 3 mps 762 mmHg 65%
    03:00 +23°C° 0 mm 2 mps 762 mmHg 68%
    04:00 +23°C° 0 mm 2 mps 762 mmHg 68%
    05:00 +21°C° 0 mm 2 mps 762 mmHg 69%
    06:00 +21°C° 0 mm 2 mps 762 mmHg 70%
    07:00 +24°C° 0 mm 2 mps 763 mmHg 63%
    08:00 +26°C° 0 mm 3 mps 763 mmHg 55%
    09:00 +27°C° 0 mm 3 mps 763 mmHg 48%
    10:00 +29°C° 0 mm 2 mps 763 mmHg 43%
    11:00 +30°C° 0 mm 2 mps 762 mmHg 38%
    12:00 +31°C° 0 mm 2 mps 762 mmHg 33%
    13:00 +31°C° 0 mm 3 mps 762 mmHg 32%
    14:00 +33°C° 0 mm 5 mps 762 mmHg 31%
    15:00 +33°C° 0 mm 6 mps 762 mmHg 30%
    16:00 +30°C° 0 mm 7 mps 762 mmHg 34%
    17:00 +29°C° 0 mm 7 mps 762 mmHg 38%
    18:00 +27°C° 0 mm 8 mps 762 mmHg 42%
    19:00 +27°C° 0 mm 8 mps 762 mmHg 46%
    20:00 +26°C° 0 mm 8 mps 763 mmHg 49%
    21:00 +24°C° 0 mm 7 mps 763 mmHg 52%
    22:00 +24°C° 0 mm 7 mps 763 mmHg 54%
    23:00 +23°C° 0 mm 6 mps 763 mmHg 56%

    26 September, Tuesday

    Time Temperature Precipitation Wind Pressure Humidity
    00:00 +23°C° 0 mm 6 mps 763 mmHg 58%
    01:00 +22°C° 0 mm 6 mps 763 mmHg 60%
    02:00 +22°C° 0 mm 6 mps 762 mmHg 61%
    03:00 +22°C° 0 mm 5 mps 762 mmHg 63%
    04:00 +21°C° 0 mm 5 mps 763 mmHg 64%
    05:00 +21°C° 0 mm 5 mps 763 mmHg 65%
    06:00 +21°C° 0 mm 5 mps 763 mmHg 66%
    07:00 +22°C° 0 mm 5 mps 763 mmHg 60%
    08:00 +23°C° 0 mm 5 mps 763 mmHg 55%
    09:00 +26°C° 0 mm 5 mps 763 mmHg 49%
    10:00 +26°C° 0 mm 5 mps 762 mmHg 46%
    11:00 +27°C° 0 mm 5 mps 762 mmHg 44%
    12:00 +28°C° 0 mm 5 mps 762 mmHg 41%
    13:00 +28°C° 0 mm 5 mps 761 mmHg 41%
    14:00 +28°C° 0 mm 5 mps 761 mmHg 41%
    15:00 +28°C° 0 mm 6 mps 760 mmHg 42%
    16:00 +27°C° 0 mm 6 mps 760 mmHg 45%
    17:00 +26°C° 0 mm 6 mps 760 mmHg 49%
    18:00 +24°C° 0 mm 6 mps 760 mmHg 53%
    19:00 +23°C° 0 mm 5 mps 760 mmHg 55%
    20:00 +23°C° 0 mm 5 mps 760 mmHg 56%
    21:00 +23°C° 0 mm 4 mps 760 mmHg 58%
    22:00 +23°C° 0 mm 4 mps 760 mmHg 59%
    23:00 +22°C° 0 mm 4 mps 760 mmHg 60%
    Show more